Location: El Guaramo
(10.5194°N, 67.1667°W)
Time: 19:50:18
(UTC+00:00)

CZ-4B R/B - Pass Details

Date: 18 April 2024
Orbit: 701 x 800 km, 99.0° (Epoch: 25 May)

Event Time Altitude Azimuth Distance (km) Brightness Sun altitude
Rises 23:21:46 0° 165° (SSE) 3,231 6.4 -10.9°
Reaches altitude 10° 23:24:06 10° 164° (SSE) 2,291 5.7 -11.5°
Maximum altitude 23:29:08 80° 78° (ENE) 759 3.4 -12.7°
Drops below altitude 10° 23:34:01 10° 350° (N) 2,225 6.2 -13.8°
Sets 23:36:15 0° 350° (N) 3,133 7.0 -14.4°
